Regional Weather Roundup
Issued by NWS San Diego, CA

Home | Current Version | Previous Version | Text Only | Print | Product List | Glossary On
Versions: 1 2 3 4 5 6 7 8 9 10 11 12 13 14 15 16 17 18 19 20 21 22 23 24 25 26 27 28 29 30 31 32 33 34 35 36 37 38 39 40 41 42 43 44 45 46 47 48 49 50
000
ASUS46 KSGX 140011
RWRSGX

SAN DIEGO HOURLY WEATHER ROUNDUP
NATIONAL WEATHER SERVICE SAN DIEGO CA
400 PM PST SAT FEB 13 2016

NOTE: "FAIR" INDICATES FEW OR NO CLOUDS BELOW 12,000 FEET WITH NO
SIGNIFICANT WEATHER AND/OR OBSTRUCTIONS TO VISIBILITY.

CAZ042-043-060-061-PZZ750-775-140100-

GREATER SAN DIEGO AREA

CITY           SKY/WX    TMP DP  RH WIND       PRES   REMARKS
LINDBERGH FLD  MOSUNNY   65  54  67 W8        30.04S
POINT LOMA       N/A     61  55  79 W20         N/A
NATIONAL CITY    N/A     66  57  72 CALM      30.03R
CHULA VISTA      N/A     67  57  68 W6        29.95F
IMPERIAL BEACH SUNNY     63  55  75 W12       30.04R
BROWN FIELD    SUNNY     66  53  63 W8        30.02S
MIRAMAR MCAS   MOSUNNY   72  52  49 W5        30.03R
MONTGOMERY FLD SUNNY     71  52  50 CALM      30.03S

$$

NORTH SAN DIEGO COUNTY

CITY           SKY/WX    TMP DP  RH WIND       PRES   REMARKS
CAMP PENDLETON SUNNY     67  47  48 S6        30.02S
OCEANSIDE AP   SUNNY     63  52  67 W9        30.02F
OCEANSIDE HBR    N/A     60  56  86 W9        30.06S
VISTA            N/A     71  51  50 SW1       30.01F
CARLSBAD       SUNNY     65  50  58 W7        30.02F
DEL MAR          N/A     61  56  82 CALM      30.07R
FALLBROOK        N/A     69  51  53 CALM      30.01F
ESCONDIDO        N/A     72  48  41 W5        30.02F
SAN MARCOS       N/A     74  51  43 CALM      30.00F
POWAY            N/A     76  48  36 CALM      30.03F

$$

EAST SAN DIEGO COUNTY

CITY           SKY/WX    TMP DP  RH WIND       PRES   REMARKS
RAMONA         SUNNY     72  46  39 W10       30.04F
SANTEE LAKES     N/A     76  51  40 SW3       30.01R
LA MESA          N/A     73  51  44 W6        29.95F
JAMUL            N/A     73  52  47 NW2       30.02S
DESCANSO N       N/A     71  40  32 W5        29.91F
MT. LAGUNA OBS   N/A     60  15  17 NE7       29.75F
CAMPO            N/A     76  33  21 NW7       30.03S

$$

ORANGE COUNTY AND THE LOS ANGELES BASIN

CITY           SKY/WX    TMP DP  RH WIND       PRES   REMARKS
JOHN WAYNE AP  MOSUNNY   64  51  62 SW5       30.03F
LAGUNA BEACH     N/A     63  56  79 CALM      29.99F
LAKE FOREST FR   N/A     74  44  34 W3        29.91S
HUNTINGTON BCH   N/A     60  57  89 S3        30.06F
LOS ALAMITOS   FAIR      61  60  99 S7        30.03F
FULLERTON      SUNNY     67  53  61 SW5       30.02F HAZE
LONG BEACH     SUNNY     70  47  43 W10       30.03F
L.A. AP        MOSUNNY   58  52  80 W5        30.04F FOG
L.A. DOWNTOWN  SUNNY     67  51  56 VRB5      30.03F

$$

THE INLAND EMPIRE

CITY           SKY/WX    TMP DP  RH WIND       PRES   REMARKS
CHINO          MOSUNNY   77  44  30 W13       30.03S
ONTARIO        MOSUNNY   78  43  28 W10       30.02F
SAN BERNARDINO SUNNY    N/A N/A N/A SW10      30.02
RIVERSIDE AP   MOSUNNY   78  42  27 W10       30.02S
MORENO VALLEY    N/A     81  40  22 S3        28.13F
MARCH ARB      SUNNY     78  40  25 NW12      30.03S
HORSETHIEF CYN   N/A     79  31  17 NE3       30.05S
PERRIS           N/A     79  36  20 NW7       30.04S
HEMET EAST       N/A     81  22  11 CALM      29.93S
FRENCH VALLEY  FAIR      77  45  31 S8        30.03S
TEMECULA         N/A     80  46  29 S7        29.95S

$$

SAN BERNARDINO AND RIVERSIDE COUNTY MOUNTAINS

CITY           SKY/WX    TMP DP  RH WIND       PRES   REMARKS
BIG BEAR AP    SUNNY     55  14  19 CALM      30.28R
PINE COVE        N/A     60  25  26 W1        30.04S

$$

SOUTHERN DESERT INCLUDING THE COACHELLA VALLEY

CITY           SKY/WX    TMP DP  RH WIND       PRES   REMARKS
PALM SPRINGS   SUNNY     86  24  10 E5        29.99S
THOUSAND PALMS   N/A     88  27  11 E3        29.95F
PALM DESERT      N/A     87  34  15 E2          N/A
THERMAL        SUNNY     85  24  11 SE5       29.94F
BLYTHE         SUNNY     84  27  12 CALM      29.98F
IMPERIAL AP    SUNNY     88  16   7 N3        29.94F
EL CENTRO NAS  SUNNY     88  14   6 CALM      29.96F
YUMA AZ        SUNNY     87  21   9 N9        29.95
MEXICALI       SUNNY     86  16   7 NW3       29.95R

$$

UPPER DESERT

CITY           SKY/WX    TMP DP  RH WIND       PRES   REMARKS
VICTORVILLE AP SUNNY     73  19  13 N14       30.14S
HESPERIA         N/A     72  22  15 NE1       30.23S
APPLE VALLEY     N/A     74  22  14 N3        30.11S
PALMDALE       SUNNY     73  26  17 N6        30.14F
LANCASTER      SUNNY     73  34  23 W9        30.13F
EDWARDS AFB    MOSUNNY   75  21  13 NW3       30.10F
DAGGETT        SUNNY     79  23  12 N3        30.09F
29 PALMS N     SUNNY     78  18  10 N10       30.13S
NEEDLES        MOSUNNY   83  20   9 N12       30.01F

$$

REGIONAL REPORTS

CITY           SKY/WX    TMP DP  RH WIND       PRES   REMARKS
SANTA BARBARA  SUNNY     62  53  72 S7        30.02F
SANDBERG       SUNNY     65  24  21 N13       30.22F
LAS VEGAS NV   MOSUNNY   75  21  13 NE3       30.06S
PHOENIX AZ     MOSUNNY   84  20   9 W6        29.95S
TIJUANA        MOSUNNY   68  45  42 W12       30.04S
ENSENADA NW      N/A     62  32  33 W9        29.99S

$$

OFFSHORE ISLANDS

CITY           SKY/WX    TMP DP  RH WIND       PRES   REMARKS
CATALINA ARPT  SUNNY     68  35  29 W9        30.08S
SAN NICOLAS IS SUNNY    N/A N/A N/A W10       30.04F

$$

MARINE AND OFFSHORE BUOY REPORTS

STATION/POSITION SKY/WX   TEMP    WIND        PRES    SWELL
                          AIR SEA DIR/SP/G            HT/PER/DIR
                          (F)     (DEG/KT/KT) (MB)    (FT/S/D)
TANNER BANKS               56 60  360/ 10/ 12 1017.5S  11/320/17
S CLEMENTE BASIN           57 62  290/ 10/ 12 1016.6F  10/290/17
SAN NICOLAS IS.               59                N/A    10/290/17
SO. S. ROSA ISLA           59 60              1016.6F
W. S. BARBARA CH           58 58  320/ 25/ 31 1016.7F  10/280/17
M. S. BARBARA CH           61 61  180/  4/  6 1017.0F
S. MONICA BASIN            55 61  250/  6/ 10 1017.4F   5/250/15
DANA POINT                    62                N/A     3/260/15
OCEANSIDE OFFSHR              62                N/A     5/240/14
TORREY PINES OTR              62                N/A     5/270/15
LA JOLLA 1                 60 61              1016.8F
SAN DIEGO BAY                 62              1017.1F
POINT LOMA SOUTH              62                N/A     5/270/13

$$




USA.gov is the U.S. government's official web portal to all federal, state and local government web resources and services.